Regional Weather Roundup
Issued by NWS Newport/Morehead, NC

Current Version | Previous Version | Text Only | Print | Product List | Glossary On
Versions: 1 2 3 4 5 6 7 8 9 10 11 12 13 14 15 16 17 18 19 20 21 22 23 24 25 26 27 28 29 30 31 32 33 34 35 36 37 38 39 40 41 42 43 44 45 46 47 48 49 50
000
ASUS42 KMHX 161210
RWRMHX
WEATHER ROUNDUP FOR EASTERN NORTH CAROLINA
NATIONAL WEATHER SERVICE NEWPORT/MOREHEAD CITY NC
800 AM EDT TUE SEP 16 2014

NOTE: "FAIR" INDICATES FEW OR NO CLOUDS BELOW 12,000 FEET
WITH NO SIGNIFICANT WEATHER AND/OR OBSTRUCTIONS TO VISIBILITY

NCZ015>017-031-032-045>047-102-103-161300-
NORTH COAST

CITY           SKY/WX    TMP DP  RH WIND       PRES   REMARKS
EDENTON        CLOUDY    72  68  87 SW6       30.05S
ELIZABETH CITY MOSUNNY   69  67  93 SW3       30.05
KITTY HAWK     MOSUNNY   71  66  84 CALM      30.04S
MANTEO         MOSUNNY   72  66  81 SW5       30.05S

$$

NCZ045>047-081-094-103-104-161300-
CENTRAL COAST

CITY           SKY/WX    TMP DP  RH WIND       PRES   REMARKS
FRISCO         PTSUNNY   70  68  93 NW3       30.06R
SWANQUARTER      N/A     73 N/A N/A W3        30.00F

$$

NCZ095-097-098-100-101-161300-
SOUTHERN COAST

CITY           SKY/WX    TMP DP  RH WIND       PRES   REMARKS
BEAUFORT       PTSUNNY   73  68  84 NE5       30.05S
CEDAR ISLAND     N/A     73 N/A N/A W5        30.09S
JACKSONVILLE   LGT RAIN  71  69  93 N6        30.05R FOG
NEWPORT        NOT AVBL
PINEY ISLAND   CLOUDY    74  67  78 CALM      30.05S HAZE
WILMINGTON     CLOUDY    72  71  97 CALM      30.04S


$$

NCZ011>013-027>030-043-044-078>080-089-090>093-098-161300-
COASTAL PLAIN

CITY           SKY/WX    TMP DP  RH WIND       PRES   REMARKS
AHOSKIE        MOSUNNY   66  65  96 CALM      30.05S
CLINTON        CLOUDY    70  70 100 CALM      30.06S FOG
ELIZABETHTOWN  HVY RAIN  71  71  99 CALM      30.06S
GOLDSBORO      MOSUNNY   69  69  99 CALM      30.04S
GREENVILLE     MOSUNNY   70  68  94 CALM      30.07S FOG
HAVELOCK       PTSUNNY   71  68  90 N6        30.06S
KENANSVILLE    CLOUDY    70  68  94 CALM      30.07S FOG
KINSTON        MOSUNNY   70  68  94 CALM      30.06S
NEW BERN       CLOUDY    72  67  84 CALM      30.06F
RICHLANDS      CLOUDY    70  66  88 CALM      30.06R
ROANOKE RAPIDS NOT AVBL
ROCKY MOUNT    CLOUDY    69  67  93 SW5       30.06S FOG
WASHINGTON     PTSUNNY   69  66  91 CALM      30.06S
WHITEVILLE     CLOUDY    72  69  92 CALM      30.05F

$$

AMZ130-135-150-152-154-156-158-170-250-252-270-ANZ085-086-088-633-658-670-161300-
MARINE OBSERVATIONS

STATION/POSITION TIME  TEMP    WIND        PRES    WAVE   SWELL
                       AIR SEA DIR/SP/G            HT/PER HT/PER
                 (UTC) (F)     (DEG/KT/KT) (MB)    (FT/S) (FT/S)
CHESAPEAKE LIGHT 1100   71     230/ 16/ 17 1017.4
BUOY 44014       1200   74 78  240/ 10/ 12 1016.7    2/ 8   2/ 8
DUCK             1200   72 76  230/  6/  8 1016.7
2E DUCK          1200                        N/A     2/ 8
OREGON INLET     1200   73 74  240/  3/  4 1017.5
BUOY 44095       1200      76                N/A     2/13
20E OREGON INLET NOT AVBL
HATTERAS CG      1200   74 77  270/  4/  4 1018.1
DIAMOND BUOY     1200   76     290/ 10/ 12 1017.6    2/ 8   2/ 8
CAPE LOOKOUT     1100   76     360/  3/  4 1017.4
BEAUFORT LAB     1200   72 79   10/  4/  4 1017.0
30 SE NEW RIVER  1200   72 81  280/  4/  6 1018.0    2/13   2/13
5 SE WRIGHTSVILL 1100   75 81  230/  6/  8   N/A
BUOY 41002       1058   80 83  290/  4/  8 1017.7    3/ 7   3/ 7
BUOY 41004       1200   81 83  320/  6/  8 1017.0    2/13   2/13

$$


USA.gov is the U.S. government's official web portal to all federal, state and local government web resources and services.